Zurück zum Katalog

STARLINK-36225

AktivKommunikationVLEO
NORAD 67207·PAYLOAD·🇺🇸 United States

Gestartet Dec 17, 2025 von Vandenberg Space Force Base

Loading…

Nächste Überflüge (nächste 24 Stunden)

TLE

AktuellSource: CelesTrak SupGP

Epoche: Sep 15, 2026, 03:20 UTC

1 67207C 25304R   26258.13937500 -.00089483  00000+0 -74887-2 0  2584
2 67207  70.0014  56.8365 0002625 266.0445   0.7177 14.98429925    17

Verfolge STARLINK-36225 in Echtzeit mit AllMySat

Download on the App Store